Radiation Dose at Monitoring Post of Fukushima Daini Nuclear Power Station
Date,Time,MP-1(microSv/h),MP-2(microSv/h),MP-3(microSv/h),MP-4(microSv/h),MP-5(microSv/h),MP-6(microSv/h),MP-7(microSv/h),Wind Direction,Wind Velocity(m/s),Rain
2021/03/21,00:00,0.181,0.161,0.258,0.244,0.240,0.144,0.091,-,CALM,Yes
2021/03/21,00:10,0.180,0.162,0.257,0.243,0.241,0.143,0.091,north-northeast,1.1,Yes
2021/03/21,00:20,0.180,0.160,0.257,0.242,0.240,0.142,0.090,-,CALM,Yes
2021/03/21,00:30,0.178,0.159,0.255,0.242,0.241,0.141,0.089,-,CALM,Yes
2021/03/21,00:40,0.177,0.159,0.254,0.240,0.239,0.141,0.088,east-southeast,0.8,Yes
2021/03/21,00:50,0.178,0.158,0.255,0.241,0.239,0.141,0.088,east-southeast,1.6,Yes
2021/03/21,01:00,0.177,0.159,0.255,0.241,0.239,0.140,0.087,south-southeast,1.8,Yes
2021/03/21,01:10,0.178,0.159,0.253,0.239,0.239,0.139,0.088,south-southeast,2.0,Yes
2021/03/21,01:20,0.176,0.159,0.253,0.240,0.238,0.139,0.088,southeast,2.8,Yes
2021/03/21,01:30,0.176,0.157,0.253,0.240,0.238,0.139,0.087,south,1.9,Yes
2021/03/21,01:40,0.175,0.158,0.253,0.239,0.238,0.140,0.087,south-southeast,1.8,Yes
2021/03/21,01:50,0.175,0.157,0.252,0.239,0.237,0.139,0.087,south-southeast,2.2,Yes
2021/03/21,02:00,0.176,0.156,0.251,0.238,0.239,0.138,0.087,south,3.5,Yes
2021/03/21,02:10,0.175,0.156,0.253,0.238,0.237,0.138,0.085,south-southeast,4.7,Yes
2021/03/21,02:20,0.175,0.156,0.251,0.237,0.236,0.137,0.085,south-southeast,4.0,Yes
2021/03/21,02:30,0.175,0.155,0.250,0.238,0.237,0.137,0.085,south-southeast,3.7,Yes
2021/03/21,02:40,0.173,0.156,0.251,0.237,0.235,0.138,0.085,south-southeast,2.9,Yes
2021/03/21,02:50,0.175,0.156,0.249,0.238,0.236,0.138,0.085,south-southeast,3.8,Yes
2021/03/21,03:00,0.174,0.154,0.251,0.236,0.236,0.137,0.084,south-southeast,5.3,Yes
2021/03/21,03:10,0.174,0.156,0.249,0.237,0.235,0.137,0.086,south-southeast,4.7,Yes
2021/03/21,03:20,0.173,0.155,0.251,0.237,0.235,0.137,0.084,south-southeast,3.8,Yes
2021/03/21,03:30,0.175,0.155,0.250,0.237,0.236,0.137,0.085,south-southeast,3.4,Yes
2021/03/21,03:40,0.174,0.155,0.250,0.237,0.235,0.137,0.085,southeast,3.1,Yes
2021/03/21,03:50,0.172,0.156,0.250,0.238,0.236,0.138,0.085,south-southeast,4.2,Yes
2021/03/21,04:00,0.174,0.155,0.251,0.236,0.236,0.137,0.085,south-southeast,4.9,Yes
2021/03/21,04:10,0.174,0.155,0.250,0.238,0.236,0.138,0.086,south-southeast,5.1,Yes
2021/03/21,04:20,0.173,0.156,0.249,0.237,0.236,0.136,0.085,south-southeast,5.4,Yes
2021/03/21,04:30,0.174,0.155,0.251,0.236,0.238,0.137,0.085,south-southeast,5.0,Yes
2021/03/21,04:40,0.174,0.156,0.250,0.239,0.237,0.137,0.086,south-southeast,5.1,Yes
2021/03/21,04:50,0.174,0.156,0.249,0.238,0.236,0.137,0.085,south-southeast,4.6,Yes
2021/03/21,05:00,0.174,0.156,0.250,0.237,0.236,0.138,0.086,south-southeast,2.7,Yes
2021/03/21,05:10,0.174,0.156,0.251,0.238,0.236,0.137,0.086,south-southeast,3.2,Yes
2021/03/21,05:20,0.174,0.156,0.251,0.238,0.236,0.137,0.086,south-southeast,3.5,Yes
2021/03/21,05:30,0.174,0.157,0.249,0.237,0.237,0.138,0.086,south-southeast,5.4,Yes
2021/03/21,05:40,0.174,0.156,0.249,0.235,0.235,0.137,0.085,south,5.9,Yes
2021/03/21,05:50,0.173,0.155,0.250,0.236,0.234,0.137,0.085,south-southwest,5.4,No
2021/03/21,06:00,0.173,0.155,0.248,0.236,0.235,0.136,0.085,south,6.8,Yes
2021/03/21,06:10,0.173,0.154,0.249,0.234,0.234,0.136,0.084,south,7.0,No
2021/03/21,06:20,0.172,0.154,0.249,0.236,0.234,0.136,0.084,south,7.0,No
2021/03/21,06:30,0.174,0.154,0.249,0.235,0.236,0.136,0.084,south-southwest,9.5,Yes
2021/03/21,06:40,0.173,0.154,0.248,0.236,0.234,0.136,0.084,south-southwest,10.3,Yes
2021/03/21,06:50,0.173,0.156,0.249,0.236,0.234,0.136,0.084,south-southwest,11.1,Yes
2021/03/21,07:00,0.175,0.155,0.249,0.236,0.234,0.136,0.085,south-southwest,10.6,Yes
2021/03/21,07:10,0.175,0.156,0.248,0.237,0.237,0.138,0.086,south-southwest,12.2,Yes
2021/03/21,07:20,0.175,0.156,0.251,0.237,0.237,0.139,0.086,south-southwest,11.8,Yes
2021/03/21,07:30,0.176,0.158,0.250,0.238,0.237,0.141,0.088,south-southwest,11.4,Yes
2021/03/21,07:40,0.177,0.157,0.251,0.238,0.238,0.140,0.089,south,10.0,Yes
2021/03/21,07:50,0.178,0.159,0.252,0.240,0.237,0.142,0.089,south,11.5,Yes
2021/03/21,08:00,0.179,0.160,0.252,0.239,0.240,0.144,0.092,south-southwest,11.7,Yes
2021/03/21,08:10,0.179,0.162,0.252,0.241,0.240,0.144,0.091,south-southwest,10.3,Yes
2021/03/21,08:20,0.179,0.162,0.253,0.241,0.240,0.144,0.093,south,10.4,Yes
2021/03/21,08:30,0.180,0.162,0.252,0.240,0.241,0.145,0.093,south,9.0,Yes
2021/03/21,08:40,0.180,0.162,0.254,0.242,0.241,0.145,0.093,south,10.4,Yes
2021/03/21,08:50,0.180,0.162,0.254,0.243,0.243,0.145,0.093,south,10.3,Yes
2021/03/21,09:00,0.179,0.162,0.253,0.242,0.241,0.145,0.092,south,10.7,Yes
2021/03/21,09:10,0.179,0.162,0.254,0.243,0.242,0.145,0.093,south,11.2,Yes
2021/03/21,09:20,0.180,0.162,0.252,0.240,0.239,0.144,0.093,south,10.3,Yes
2021/03/21,09:30,0.178,0.161,0.252,0.239,0.239,0.143,0.091,south,9.8,Yes
2021/03/21,09:40,0.176,0.158,0.250,0.239,0.240,0.141,0.090,south,10.9,Yes
2021/03/21,09:50,0.175,0.158,0.250,0.239,0.236,0.139,0.088,south,11.7,Yes
2021/03/21,10:00,0.176,0.158,0.250,0.237,0.237,0.140,0.088,south,11.2,Yes
2021/03/21,10:10,0.175,0.156,0.247,0.236,0.235,0.138,0.087,south,10.6,Yes
2021/03/21,10:20,0.173,0.156,0.248,0.236,0.236,0.138,0.087,south,11.7,Yes
2021/03/21,10:30,0.173,0.155,0.246,0.235,0.234,0.136,0.086,south,10.7,Yes
2021/03/21,10:40,0.171,0.155,0.247,0.235,0.234,0.137,0.086,south,13.6,Yes
2021/03/21,10:50,0.172,0.155,0.247,0.233,0.233,0.136,0.085,south,15.0,Yes
2021/03/21,11:00,0.171,0.154,0.246,0.234,0.234,0.137,0.084,south,13.1,Yes
2021/03/21,11:10,0.172,0.154,0.246,0.232,0.233,0.135,0.085,south,14.8,Yes
2021/03/21,11:20,0.172,0.154,0.245,0.233,0.234,0.135,0.085,south,14.5,Yes
2021/03/21,11:30,0.172,0.156,0.246,0.234,0.234,0.137,0.085,south,15.3,Yes
2021/03/21,11:40,0.173,0.155,0.247,0.233,0.233,0.136,0.086,south,15.3,Yes
2021/03/21,11:50,0.173,0.155,0.245,0.233,0.234,0.138,0.087,south-southeast,13.7,Yes
2021/03/21,12:00,0.174,0.157,0.245,0.233,0.234,0.136,0.087,south-southeast,14.3,Yes
2021/03/21,12:10,0.172,0.155,0.245,0.233,0.235,0.136,0.086,south,14.7,Yes
2021/03/21,12:20,0.173,0.155,0.245,0.233,0.235,0.136,0.086,south,14.6,Yes
2021/03/21,12:30,0.172,0.154,0.243,0.232,0.233,0.136,0.086,south,16.1,Yes
2021/03/21,12:40,0.171,0.154,0.243,0.233,0.235,0.136,0.086,south,15.6,Yes
2021/03/21,12:50,0.171,0.156,0.244,0.231,0.233,0.137,0.086,south,15.1,Yes
2021/03/21,13:00,0.171,0.153,0.243,0.231,0.234,0.135,0.085,south,14.5,Yes
2021/03/21,13:10,0.171,0.154,0.245,0.233,0.235,0.134,0.085,south-southeast,14.5,Yes
2021/03/21,13:20,0.170,0.154,0.244,0.231,0.233,0.135,0.086,south-southeast,13.7,Yes
2021/03/21,13:30,0.171,0.154,0.245,0.232,0.234,0.134,0.085,south,14.4,Yes
2021/03/21,13:40,0.170,0.154,0.244,0.231,0.233,0.135,0.086,south-southeast,12.0,Yes
2021/03/21,13:50,0.171,0.153,0.241,0.231,0.235,0.136,0.086,south-southeast,11.8,Yes
2021/03/21,14:00,0.171,0.155,0.245,0.232,0.233,0.137,0.087,south-southeast,13.9,Yes
2021/03/21,14:10,0.172,0.156,0.244,0.231,0.234,0.137,0.088,south,15.1,Yes
2021/03/21,14:20,0.172,0.154,0.243,0.233,0.235,0.136,0.088,south-southeast,12.5,Yes
2021/03/21,14:30,0.170,0.156,0.244,0.231,0.234,0.137,0.089,south-southeast,12.9,Yes
2021/03/21,14:40,0.171,0.156,0.243,0.233,0.235,0.137,0.090,south-southeast,15.1,Yes
2021/03/21,14:50,0.171,0.155,0.243,0.231,0.234,0.137,0.090,south-southeast,13.9,Yes
2021/03/21,15:00,0.172,0.156,0.244,0.233,0.235,0.137,0.090,south,12.6,Yes
2021/03/21,15:10,0.172,0.156,0.244,0.232,0.235,0.138,0.090,south,12.9,Yes
2021/03/21,15:20,0.173,0.158,0.245,0.230,0.236,0.137,0.090,south,9.2,Yes
2021/03/21,15:30,0.172,0.158,0.244,0.234,0.236,0.139,0.091,south,10.9,Yes
2021/03/21,15:40,0.171,0.158,0.246,0.232,0.236,0.137,0.090,south,13.1,Yes
2021/03/21,15:50,0.172,0.157,0.244,0.234,0.236,0.138,0.090,south-southeast,10.7,Yes
2021/03/21,16:00,0.171,0.157,0.245,0.233,0.237,0.137,0.089,south,9.5,Yes
2021/03/21,16:10,0.170,0.158,0.245,0.234,0.236,0.138,0.090,south,12.0,Yes
2021/03/21,16:20,0.170,0.157,0.245,0.233,0.236,0.138,0.090,south,14.3,Yes
2021/03/21,16:30,0.171,0.158,0.243,0.233,0.236,0.138,0.092,south,11.5,Yes
2021/03/21,16:40,0.171,0.157,0.245,0.234,0.236,0.138,0.090,south,11.8,Yes
2021/03/21,16:50,0.172,0.158,0.247,0.234,0.237,0.139,0.091,south,10.9,Yes
2021/03/21,17:00,0.171,0.157,0.244,0.235,0.236,0.138,0.090,south,9.2,Yes
2021/03/21,17:10,0.172,0.157,0.247,0.233,0.237,0.138,0.090,south,12.6,Yes
2021/03/21,17:20,0.170,0.157,0.244,0.234,0.235,0.137,0.090,south,11.5,Yes
2021/03/21,17:30,0.170,0.156,0.245,0.232,0.236,0.137,0.088,south,8.4,Yes
2021/03/21,17:40,0.169,0.156,0.244,0.233,0.235,0.136,0.088,south,9.2,Yes
2021/03/21,17:50,0.168,0.154,0.244,0.231,0.234,0.135,0.086,south,9.6,Yes
2021/03/21,18:00,0.167,0.155,0.244,0.231,0.233,0.134,0.085,south,8.7,Yes
2021/03/21,18:10,0.168,0.152,0.242,0.231,0.234,0.133,0.084,south,9.8,Yes
2021/03/21,18:20,0.168,0.152,0.242,0.229,0.231,0.133,0.085,south,10.4,Yes
2021/03/21,18:30,0.166,0.151,0.240,0.230,0.232,0.132,0.084,south,12.0,Yes
2021/03/21,18:40,0.168,0.152,0.242,0.231,0.231,0.133,0.085,south,11.5,Yes
2021/03/21,18:50,0.168,0.152,0.241,0.231,0.234,0.133,0.084,south,10.4,Yes
2021/03/21,19:00,0.169,0.153,0.243,0.230,0.234,0.133,0.086,south,10.7,Yes
2021/03/21,19:10,0.169,0.153,0.242,0.231,0.235,0.135,0.086,south,10.1,Yes
2021/03/21,19:20,0.169,0.153,0.244,0.230,0.232,0.134,0.087,south,8.3,Yes
2021/03/21,19:30,0.169,0.154,0.242,0.232,0.235,0.135,0.086,south-southwest,10.1,Yes
2021/03/21,19:40,0.169,0.153,0.243,0.231,0.233,0.134,0.086,south-southwest,9.2,Yes
2021/03/21,19:50,0.168,0.154,0.243,0.233,0.234,0.135,0.086,south-southwest,7.8,Yes
2021/03/21,20:00,0.169,0.152,0.242,0.230,0.232,0.133,0.085,south-southwest,8.1,No
2021/03/21,20:10,0.168,0.152,0.241,0.230,0.233,0.133,0.084,south-southwest,7.5,No
2021/03/21,20:20,0.169,0.151,0.241,0.229,0.231,0.131,0.083,west,4.7,Yes
2021/03/21,20:30,0.168,0.152,0.241,0.230,0.232,0.133,0.085,northwest,4.5,Yes
2021/03/21,20:40,0.169,0.153,0.237,0.226,0.232,0.133,0.087,northwest,6.7,Yes
2021/03/21,20:50,0.168,0.155,0.241,0.230,0.235,0.136,0.088,west-northwest,5.6,Yes
2021/03/21,21:00,0.170,0.156,0.242,0.232,0.236,0.137,0.089,west-northwest,7.2,Yes
2021/03/21,21:10,0.169,0.157,0.243,0.232,0.237,0.138,0.091,west-northwest,6.4,Yes
2021/03/21,21:20,0.171,0.157,0.244,0.233,0.236,0.139,0.092,west-northwest,5.1,Yes
2021/03/21,21:30,0.171,0.157,0.244,0.233,0.238,0.140,0.092,northwest,5.4,Yes
2021/03/21,21:40,0.171,0.158,0.244,0.233,0.239,0.140,0.095,northwest,7.9,Yes
2021/03/21,21:50,0.173,0.161,0.246,0.236,0.239,0.141,0.095,northwest,8.3,Yes
2021/03/21,22:00,0.174,0.161,0.246,0.235,0.242,0.143,0.096,west-northwest,8.1,Yes
2021/03/21,22:10,0.175,0.162,0.248,0.237,0.243,0.144,0.097,west-northwest,6.0,Yes
2021/03/21,22:20,0.174,0.163,0.249,0.239,0.243,0.144,0.097,west-northwest,6.6,Yes
2021/03/21,22:30,0.175,0.163,0.248,0.237,0.242,0.144,0.098,northwest,7.1,Yes
2021/03/21,22:40,0.175,0.164,0.247,0.238,0.242,0.146,0.098,northwest,8.5,Yes
2021/03/21,22:50,0.174,0.164,0.247,0.238,0.243,0.145,0.098,northwest,8.3,Yes
2021/03/21,23:00,0.173,0.164,0.248,0.237,0.242,0.145,0.097,northwest,6.3,Yes
2021/03/21,23:10,0.174,0.163,0.248,0.237,0.242,0.145,0.098,northwest,5.5,Yes
2021/03/21,23:20,0.177,0.166,0.249,0.240,0.246,0.148,0.101,west-northwest,5.3,Yes
2021/03/21,23:30,0.180,0.168,0.252,0.244,0.247,0.150,0.102,north-northwest,3.6,Yes
2021/03/21,23:40,0.178,0.167,0.254,0.243,0.245,0.148,0.103,north,2.3,Yes
2021/03/21,23:50,0.179,0.166,0.250,0.242,0.245,0.146,0.100,north,3.1,Yes
